Torna al catalogo

STARLINK-4346

AttivoComunicazioniSSO
NORAD 53073·PAYLOAD·🇺🇸 United States

Lanciato Jul 11, 2022 da Vandenberg Space Force Base

Loading…

Prossimi Passaggi (prossime 24 ore)

TLE

AggiornatoSource: CelesTrak SupGP

Epoca: Sep 14, 2026, 14:09 UTC

1 53073C 22077AG  26257.59006944 -.00030861  00000+0 -12470-2 0  2577
2 53073  97.6333  88.7166 0005202 291.9444  63.6904 15.24823242    11

Traccia STARLINK-4346 in tempo reale con AllMySat

Download on the App Store